Orbital Elements at Epoch 2459200.5 (2020-Dec-17.0) TDB
Reference: JPL 17 (heliocentric ecliptic J2000)
Element | Value | Uncertainty (1-sigma) | Units |
e | .08378483438616061 | 9.7697e-08 | |
a | 2.953297501658416 | 2.6655e-08 | au |
q | 2.705855959588904 | 3.0063e-07 | au |
i | 1.071822104684045 | 9.4247e-06 | deg |
node | 331.6417595315461 | 0.00029785 | deg |
peri | 39.26396878409924 | 0.00029984 | deg |
M | 138.4010759370312 | 3.6462e-05 | deg |
tp | 2458487.817344606022 (2019-Jan-04.31734461) | 0.00018341 | TDB |
period | 1853.784403081972 5.08 | 2.5097e-05 6.871e-08 | d yr |
n | .1941973399935231 | 2.6291e-09 | deg/d |
Q | 3.200739043727929 | 2.8888e-08 | au |
|
| | Orbit Determination Parameters
Additional Information
|